Temp
63 62 63 63 63 63 63 63 63 63 64 64 64 64 65 65 64 80 89 93 93 80 83 99 97 99 98 90 76 74 76 67 83 83 87 96 92 98 100 94 97 98 93 95 97
62 62 62 63 63 63 62 62 62 63 63 64 64 64 65 65 80 90 94 83 81 81 93 96 95 97 91 92 94 86 71 72 85 94 92 95 94 94 93 91 92 94 96 97 97
62 62 62 62 62 62 62 62 62 62 62 63 64 64 65 69 85 98 82 81 81 84 101 102 100 81 75 83 83 89 81 88 94 96 98 94 93 98 92 87 92 88 90 94 95
62 61 62 62 62 62 62 62 62 62 62 62 64 65 65 81 83 100 83 81 81 96 98 101 89 79 81 85 96 89 97 94 97 100 98 94 98 91 93 92 98 95 95 94 93
61 61 61 62 61 61 62 62 61 62 62 62 64 65 77 87 95 96 82 83 94 94 97 99 92 84 80 90 87 93 96 99 100 100 99 98 95 95 94 100 100 97 96 94 95
60 60 60 61 61 61 61 61 61 61 62 63 64 64 84 87 105 101 100 95 99 97 101 103 100 102 96 91 89 98 97 98 99 98 98 96 95 96 96 100 96 95 94 96 96
60 60 60 60 60 60 60 60 61 61 62 64 65 80 89 95 109 104 104 99 103 104 100 107 106 99 99 81 101 100 93 96 97 97 95 99 90 88 96 99 95 94 94 96 97
60 60 60 60 60 60 60 60 60 62 63 65 66 84 89 111 113 106 107 103 107 110 107 108 108 101 98 101 89 86 80 78 89 97 97 94 71 83 98 97 93 94 94 95 97
60 60 59 59 59 59 59 59 61 64 66 69 80 87 92 97 103 109 109 102 106 107 108 109 105 98 90 83 79 84 74 78 78 98 96 89 73 79 92 97 93 94 94 95 96
59 59 59 59 59 58 58 58 66 65 72 88 92 89 97 97 106 108 110 108 104 103 101 100 98 85 81 80 73 78 76 79 67 83 95 91 84 88 96 98 94 95 94 94 95
59 59 59 58 58 58 66 88 87 85 90 92 96 95 102 108 111 105 108 104 103 99 89 96 90 81 83 91 93 91 86 83 86 90 85 90 90 91 98 98 96 95 94 94 95
58 58 58 58 57 57 64 87 99 102 90 96 99 103 108 108 97 102 109 96 94 87 94 91 85 92 89 95 93 92 87 84 88 81 91 89 87 92 75 90 98 97 96 96 97
58 58 58 57 56 63 87 94 108 107 90 96 100 100 102 105 98 99 104 99 93 89 91 87 91 94 91 92 91 89 83 82 83 90 92 87 80 81 85 82 98 101 100 99 97
58 58 57 55 63 96 94 103 107 108 81 89 94 99 103 103 94 107 107 100 95 89 92 92 98 93 89 90 93 84 93 92 89 85 77 85 63 69 65 70 78 99 100 99 98
57 57 56 55 69 89 103 110 109 102 65 95 96 110 105 97 98 99 110 101 90 92 93 88 92 92 89 91 93 88 95 92 91 87 78 72 64 63 61 62 68 94 99 100 100
57 56 56 74 73 89 102 107 101 78 68 89 96 93 93 97 97 102 100 105 102 93 94 93 101 96 94 96 96 97 92 91 91 87 74 76 70 62 65 63 68 82 98 99 100
56 55 56 73 92 105 105 97 77 71 94 88 89 93 91 90 91 95 92 90 85 79 80 89 92 98 99 91 96 94 88 75 72 71 70 83 77 79 76 74 74 80 98 100 101
55 54 63 78 99 99 98 84 68 84 87 97 95 93 87 92 91 92 90 86 92 90 84 81 78 92 98 92 87 88 87 74 63 61 67 82 72 78 89 85 87 94 101 101 101
53 83 85 92 89 97 88 73 76 84 95 92 93 87 87 92 92 91 89 89 92 93 81 81 83 98 98 99 96 88 81 91 79 76 74 74 63 67 89 95 97 98 98 99 100
65 86 94 103 98 92 82 70 85 96 96 95 85 90 84 88 88 89 88 94 92 98 98 89 79 94 96 99 98 93 95 81 83 69 67 65 61 51 59 69 94 95 96 97 100
73 85 98 103 99 86 75 81 88 96 96 90 87 88 90 89 91 89 89 95 98 97 99 95 88 86 94 89 87 89 85 87 87 83 72 62 55 58 61 69 93 96 98 98 100
85 80 99 101 81 84 80 86 78 94 99 93 93 91 89 91 89 90 89 94 102 99 91 95 90 80 86 96 98 95 90 91 79 75 82 80 68 73 74 84 97 98 98 100 102
78 89 99 97 76 81 87 88 92 92 94 92 90 93 94 89 83 90 92 101 100 96 91 95 86 77 80 91 95 89 92 92 91 90 80 76 64 87 85 93 94 92 93 94 98
78 82 88 89 90 85 85 86 86 95 94 94 92 94 91 87 91 87 91 98 99 98 79 89 87 82 77 82 87 82 88 91 90 82 82 80 76 83 87 89 89 90 91 92 88
82 84 88 81 83 85 87 87 86 85 94 93 88 89 87 82 85 86 91 94 97 78 92 92 80 84 87 90 89 87 83 89 87 87 81 78 71 60 63 81 87 88 88 87 83
78 77 82 82 88 85 78 83 84 88 89 88 84 88 89 83 85 83 90 91 88 92 90 94 80 84 82 89 89 86 90 90 89 90 89 82 71 75 73 83 84 83 84 82 81
82 84 80 74 84 83 83 85 85 89 91 93 91 88 86 89 91 94 96 96 94 87 88 88 84 80 74 85 85 78 87 89 90 92 91 82 76 76 76 82 82 83 83 81 81
MSLP
1015.66 1015.36 1015.11 1014.91 1014.64 1014.37 1014.30 1013.99 1013.67 1013.42 1013.20 1013.17 1012.98 1012.52 1012.20 1011.90 1011.48 1010.62 1008.15 1006.41 1006.17 1006.84 1007.33 1006.39 1006.07 1005.70 1006.23 1006.13 1008.15 1007.17 1006.39 1004.58 1001.61 1001.09 1000.68 1000.68 1001.09 1001.66 1002.37 1003.21 1003.66 1004.25 1005.69 1006.92 1008.26
1015.81 1015.52 1015.08 1014.78 1014.66 1014.41 1014.14 1013.90 1013.61 1013.30 1013.02 1012.83 1012.80 1012.55 1012.26 1012.01 1010.72 1008.27 1005.90 1005.82 1006.22 1006.75 1006.86 1005.50 1004.78 1004.57 1004.52 1004.91 1004.14 1004.47 1005.14 1003.34 1001.31 1000.20 1000.31 1000.62 1001.28 1001.92 1002.43 1003.30 1003.90 1004.68 1006.07 1007.40 1008.19
1015.84 1015.59 1015.25 1014.81 1014.37 1014.16 1014.08 1013.85 1013.52 1013.18 1012.84 1012.60 1012.43 1012.25 1012.07 1011.74 1009.21 1005.55 1005.75 1005.77 1006.12 1006.31 1005.46 1004.88 1004.83 1005.15 1005.55 1004.26 1003.71 1002.65 1002.23 1001.11 1000.29 1000.21 1000.07 1000.65 1001.34 1001.60 1002.39 1003.06 1003.95 1005.27 1006.42 1007.41 1008.05
1015.89 1015.56 1015.26 1014.97 1014.46 1014.01 1013.73 1013.61 1013.31 1013.02 1012.75 1012.58 1012.27 1012.02 1011.86 1010.90 1007.14 1005.37 1005.94 1006.08 1006.13 1006.18 1005.75 1004.12 1004.25 1005.83 1003.94 1003.54 1001.85 1000.99 1000.08 1000.15 999.82 999.70 999.89 1000.20 1000.69 1001.69 1001.96 1002.44 1003.64 1005.29 1006.40 1007.11 1007.77
1016.08 1015.64 1015.22 1014.82 1014.57 1014.11 1013.68 1013.41 1013.20 1012.80 1012.47 1012.38 1012.23 1011.93 1011.21 1008.79 1005.39 1005.52 1006.09 1006.40 1006.25 1006.19 1004.79 1003.23 1003.07 1003.47 1003.47 1002.60 1002.01 1000.48 999.85 999.64 999.70 999.52 999.67 1000.35 1000.58 1001.01 1002.02 1002.68 1003.85 1005.24 1006.22 1006.86 1007.26
1016.17 1015.71 1015.24 1014.84 1014.35 1014.07 1013.66 1013.26 1013.00 1012.67 1012.35 1012.13 1011.99 1011.86 1010.21 1006.35 1004.53 1005.19 1005.53 1006.08 1005.50 1005.20 1003.48 1002.49 1001.73 1001.43 1001.33 1001.47 1001.52 999.89 999.96 999.64 999.70 999.71 1000.03 1000.16 1000.99 1001.58 1002.41 1002.99 1004.15 1005.27 1005.96 1006.46 1006.71
1016.29 1015.82 1015.31 1014.75 1014.32 1013.94 1013.58 1013.15 1012.76 1012.39 1012.13 1012.00 1011.91 1011.20 1008.29 1004.74 1003.80 1004.92 1004.97 1005.25 1004.73 1003.76 1002.48 1001.83 1001.84 1001.87 1001.39 1001.89 1000.44 1000.00 999.64 999.73 999.76 1000.21 1000.23 1000.21 1001.13 1001.84 1002.50 1003.15 1004.12 1005.05 1005.58 1005.99 1006.30
1016.41 1015.90 1015.33 1014.83 1014.22 1013.73 1013.37 1013.01 1012.50 1012.13 1011.78 1011.71 1011.79 1010.52 1006.42 1003.57 1003.35 1004.17 1004.30 1004.28 1004.10 1003.06 1002.73 1002.21 1001.83 1001.86 1001.56 1000.95 1001.70 1001.52 1002.51 1001.22 1000.21 999.75 1000.08 1000.86 1002.63 1002.48 1002.59 1002.99 1003.81 1004.48 1005.08 1005.56 1005.97
1016.15 1015.83 1015.39 1014.75 1014.16 1013.56 1013.10 1012.68 1012.02 1011.71 1011.57 1011.41 1010.97 1009.11 1004.86 1004.04 1003.53 1003.26 1003.48 1003.32 1003.04 1002.70 1002.43 1002.06 1001.95 1001.67 1002.46 1002.19 1002.01 1002.13 1002.44 1002.46 1002.05 999.83 999.67 1000.94 1002.76 1002.65 1002.51 1002.16 1002.99 1003.74 1004.45 1005.03 1005.57
1016.00 1015.57 1015.21 1014.82 1014.14 1013.47 1012.61 1012.24 1011.43 1011.39 1011.07 1010.28 1009.08 1007.63 1004.09 1002.71 1002.41 1002.61 1002.91 1002.83 1002.27 1002.08 1001.84 1001.45 1001.14 1001.51 1002.14 1002.33 1000.99 1000.81 1001.21 1001.84 1002.87 1000.79 999.48 999.76 1001.14 1001.78 1000.99 1001.00 1001.85 1002.85 1003.75 1004.43 1004.94
1015.99 1015.45 1015.04 1014.65 1014.18 1013.65 1012.52 1010.69 1010.63 1009.66 1008.48 1006.01 1004.46 1003.43 1001.67 1001.57 1001.69 1002.19 1002.46 1002.56 1002.47 1002.03 1001.42 1000.66 1000.22 1000.51 1000.96 1000.33 999.57 999.17 999.37 999.97 1000.16 1000.25 1000.00 999.20 999.60 1000.32 1000.35 1000.63 1000.86 1001.64 1002.82 1003.70 1004.24
1015.97 1015.37 1014.74 1014.28 1013.91 1013.54 1013.17 1009.49 1005.73 1004.71 1004.53 1004.24 1003.36 1002.14 1001.26 1001.39 1001.61 1001.65 1002.11 1002.30 1002.02 1001.57 1000.89 1000.33 999.55 999.85 1000.44 999.26 998.83 998.36 998.58 999.02 999.44 1000.22 999.48 999.51 999.91 1000.85 1001.57 1001.41 1000.41 1000.61 1001.65 1002.75 1003.55
1015.76 1015.23 1014.60 1013.86 1013.33 1012.79 1010.09 1007.23 1005.24 1004.48 1003.62 1001.66 1001.76 1001.24 1000.84 1001.25 1000.78 1000.81 1001.53 1001.65 1001.26 1001.03 1000.26 999.57 999.04 999.79 1000.03 998.65 997.93 997.92 998.68 999.39 998.91 998.93 999.17 1000.18 1001.42 1002.77 1003.39 1002.72 1000.37 999.99 1000.61 1001.66 1002.64
1015.70 1015.00 1014.50 1013.67 1012.81 1008.96 1007.43 1006.00 1005.52 1004.47 1002.95 999.88 1000.06 1000.11 1000.44 1000.82 1000.56 1000.18 1000.40 1001.12 1000.78 1000.45 999.81 998.92 998.11 998.64 998.97 997.95 997.57 997.22 997.97 997.84 997.91 998.55 999.21 1001.05 1003.45 1005.05 1005.09 1003.45 1003.65 1000.24 1000.04 1000.83 1001.82
1015.68 1014.90 1014.29 1014.50 1012.16 1008.27 1005.34 1004.92 1004.68 1004.24 1001.27 997.51 998.63 998.75 999.53 999.97 999.47 999.78 999.77 1000.39 1000.28 999.79 999.75 998.74 997.88 997.63 997.53 997.46 998.29 997.45 997.72 997.69 997.60 997.98 999.85 1002.42 1004.56 1006.81 1007.74 1007.15 1004.84 1000.80 999.88 1000.34 1001.16
1015.42 1014.85 1014.23 1012.07 1011.63 1007.77 1006.24 1005.17 1004.99 1003.48 999.51 997.80 998.27 998.53 998.96 999.25 999.45 998.77 999.40 999.81 1000.02 999.88 999.28 998.49 997.90 997.61 997.57 997.23 997.58 997.58 997.67 997.46 997.23 997.94 999.32 1001.44 1003.66 1005.69 1007.55 1007.12 1005.46 1001.41 999.64 1000.01 1000.75
1014.83 1014.48 1014.43 1012.06 1007.87 1005.97 1005.73 1005.29 1003.94 1001.19 997.85 997.14 997.46 998.16 998.50 998.62 999.14 998.75 998.81 999.33 999.62 999.50 998.98 998.50 997.64 997.31 997.20 997.29 997.15 997.28 997.17 996.67 996.83 997.97 999.25 1000.50 1002.13 1002.48 1003.92 1003.15 1002.64 1001.03 998.77 999.13 1000.13
1013.59 1013.33 1011.29 1009.98 1007.27 1007.28 1005.99 1005.05 1002.60 999.21 997.60 996.29 996.61 997.30 997.79 997.91 998.25 998.39 998.54 998.67 998.96 998.97 998.22 997.47 996.64 996.08 996.26 996.66 997.00 996.70 997.12 997.38 997.56 999.00 999.89 1000.32 1002.04 1002.05 1000.98 1001.34 1000.19 998.85 997.93 998.67 999.54
1012.45 1009.74 1009.05 1007.16 1007.94 1006.93 1005.80 1003.74 1001.05 998.70 996.69 995.91 996.35 996.55 997.00 997.26 997.26 997.70 997.57 997.61 997.68 998.12 998.18 997.13 996.05 995.28 995.46 995.57 996.23 996.41 996.67 996.79 996.84 998.44 998.90 1000.65 1004.05 1003.27 1001.27 999.26 998.66 997.86 998.12 998.74 999.32
1012.62 1008.76 1005.70 1005.11 1006.73 1006.60 1005.14 1002.40 1000.09 998.21 997.31 996.88 996.21 996.13 995.82 996.17 996.54 996.50 996.60 996.81 996.81 996.67 997.02 997.03 996.38 995.71 995.43 995.61 995.58 995.75 996.08 996.11 995.98 996.47 998.00 1001.24 1005.08 1006.72 1003.95 1003.00 998.94 998.50 998.57 998.97 999.59
1011.87 1007.13 1004.34 1004.94 1005.85 1005.38 1003.34 1001.62 1000.08 998.92 998.11 997.86 997.12 996.18 995.62 995.25 995.29 995.41 995.78 995.75 995.86 996.06 996.29 996.32 996.76 996.22 995.47 995.52 995.63 995.72 995.91 996.04 996.03 996.18 997.09 1000.24 1006.50 1006.80 1005.59 1001.35 998.91 998.55 998.70 998.96 999.30
1009.65 1005.79 1004.25 1004.71 1004.78 1003.75 1002.35 1001.31 999.98 998.29 997.55 998.13 997.82 997.08 996.34 995.67 995.18 994.77 994.84 994.85 995.01 995.78 995.88 996.42 996.33 996.08 995.26 995.06 995.14 994.80 994.67 994.68 994.99 995.61 996.37 997.80 1002.56 1003.80 1001.54 1000.66 998.95 998.76 998.81 999.12 999.31
1009.54 1004.81 1004.29 1004.26 1003.22 1002.19 1001.44 1000.65 999.64 998.62 997.71 997.80 997.67 997.45 997.08 996.54 996.05 995.21 994.78 994.49 995.21 995.96 996.59 996.42 996.61 996.20 995.46 994.72 994.34 994.56 994.66 994.82 994.60 994.57 995.19 996.86 1001.09 1001.58 1001.93 1000.03 999.87 1000.12 1000.49 1000.75 1000.61
1009.89 1004.26 1003.63 1003.90 1002.97 1001.63 1000.31 999.48 998.98 998.51 997.84 997.84 997.76 997.52 997.30 997.07 996.76 996.13 995.22 995.01 995.69 996.19 997.31 997.54 997.04 996.31 995.31 994.43 994.64 994.63 994.69 994.44 994.29 994.19 994.87 996.71 999.64 1001.42 1002.22 1001.38 1001.36 1001.63 1002.17 1002.49 1003.25
1009.02 1004.56 1003.16 1002.00 1002.01 1001.59 1000.84 999.51 998.32 998.05 997.85 998.53 998.51 998.41 998.11 997.80 997.29 996.37 995.96 995.27 995.66 996.80 997.13 997.53 997.29 996.81 995.75 994.89 994.75 994.78 995.19 994.43 993.96 994.49 995.35 997.91 1000.32 1002.62 1004.02 1003.57 1003.28 1002.98 1003.45 1004.01 1005.11
1008.81 1007.00 1005.32 1003.52 1001.61 1001.05 1000.14 999.76 999.09 998.18 997.84 997.76 998.47 998.67 998.37 998.17 997.90 996.91 995.95 995.71 995.65 996.18 996.50 996.85 997.07 997.06 996.37 995.65 994.95 994.61 994.21 994.18 994.65 994.34 995.17 997.59 1000.57 1001.56 1002.63 1002.88 1003.70 1003.95 1004.29 1005.39 1006.36
1010.45 1009.00 1007.37 1004.52 1002.37 1001.21 1000.32 999.55 999.29 999.05 998.55 998.02 998.08 998.40 998.26 998.35 998.42 997.66 996.91 996.73 996.26 996.07 995.07 996.00 996.43 996.73 996.49 996.16 995.53 994.97 994.54 994.77 994.59 994.61 995.24 996.85 999.77 1002.47 1002.66 1002.55 1003.57 1004.24 1004.82 1005.89 1007.17
Wind_Speed
13 12 11 10 11 11 10 11 11 11 10 9 8 11 11 11 13 7 11 2 5 17 6 11 15 9 10 14 24 12 5 8 10 7 14 14 12 14 16 11 7 12 18 22 21
13 13 13 12 11 11 11 11 11 11 11 10 8 9 10 9 12 16 8 10 15 13 10 13 9 8 9 7 6 7 7 6 8 11 11 14 13 15 14 11 11 19 23 21 20
14 14 13 14 14 13 11 11 11 11 12 12 10 10 9 11 10 2 6 12 14 16 17 6 6 8 7 7 5 6 5 13 10 12 13 15 11 13 11 12 17 19 18 20 19
16 15 14 14 14 15 14 12 12 12 12 12 12 11 8 7 4 6 7 8 11 14 15 10 10 1 7 9 3 8 7 6 13 10 12 8 11 11 8 15 20 20 20 18 18
16 16 16 15 14 14 15 14 13 13 13 12 11 10 8 9 3 11 9 8 11 12 17 15 8 12 15 11 10 14 8 13 8 7 9 13 7 9 10 16 20 20 19 18 17
17 17 17 16 16 15 15 15 14 14 14 12 11 11 8 13 11 14 13 13 12 14 18 11 13 14 13 12 12 4 8 12 7 9 5 10 11 8 13 15 19 19 18 17 17
17 17 17 18 17 16 16 16 15 15 14 11 8 7 9 10 11 12 14 15 15 17 16 9 9 13 12 16 4 5 6 9 12 9 6 8 14 3 13 14 17 17 16 16 16
17 17 17 18 18 17 17 17 17 15 14 10 6 8 9 5 3 14 15 14 15 15 15 13 13 14 14 7 13 12 11 6 14 13 12 4 5 13 7 15 15 18 16 15 15
18 18 17 18 18 19 17 18 17 12 9 5 7 7 14 4 11 13 14 15 15 13 14 13 12 15 12 10 3 4 4 14 17 15 14 12 5 23 23 17 16 16 16 15 15
20 19 19 17 17 18 21 13 5 11 7 10 11 10 14 14 12 13 15 15 10 12 14 16 14 3 8 9 6 10 6 11 20 27 10 15 18 20 23 20 19 17 16 16 16
20 18 19 16 16 16 15 5 6 8 13 13 16 14 9 12 12 14 14 14 12 14 14 15 13 6 15 12 14 11 17 5 12 6 19 14 9 11 14 16 20 19 18 17 17
19 21 21 18 16 15 7 8 12 10 8 25 23 20 14 10 12 14 14 13 15 14 16 17 16 5 17 17 8 12 7 5 4 15 13 9 11 11 22 16 16 20 20 19 17
21 22 20 20 22 7 12 18 14 13 12 16 25 20 13 12 15 17 17 16 16 15 17 17 7 13 15 18 13 7 1 10 6 9 6 10 6 16 6 15 11 17 21 20 19
20 21 20 25 5 7 14 17 15 10 9 19 26 21 20 17 19 19 19 17 16 18 17 15 11 10 20 17 12 6 5 10 4 9 7 2 5 16 22 26 34 15 19 19 20
19 22 21 12 14 7 8 3 5 7 8 16 21 8 22 23 10 20 16 14 20 18 14 17 16 13 12 14 11 12 5 12 10 10 13 9 7 3 13 28 29 20 16 17 18
22 21 22 5 8 15 15 8 7 8 12 9 10 11 19 23 19 18 20 17 15 20 19 20 18 11 17 8 6 12 12 17 18 8 4 7 8 11 15 25 25 20 18 16 18
25 21 11 11 4 5 8 8 7 12 7 10 14 13 17 19 20 20 16 18 15 16 16 19 21 16 12 15 15 14 15 13 9 6 6 9 6 8 20 27 31 25 19 20 19
29 24 10 10 10 11 8 9 11 13 17 4 10 13 16 17 18 22 16 15 20 20 18 14 14 24 18 17 16 17 14 8 17 3 11 13 3 4 16 26 29 28 17 16 18
35 5 6 9 15 9 9 13 12 18 10 2 6 14 16 18 13 20 19 17 17 19 20 18 19 10 4 19 19 16 13 19 18 30 18 9 1 21 23 12 10 16 17 15 14
8 9 12 12 13 9 10 18 20 23 6 13 13 10 12 18 19 17 18 17 17 17 19 17 17 14 7 7 12 13 12 11 13 14 11 3 8 6 35 31 15 15 15 13 12
6 7 10 11 11 8 13 18 21 24 5 8 16 17 13 15 17 17 14 16 14 14 15 15 13 17 14 7 13 13 14 14 17 15 13 5 3 13 25 27 16 18 18 17 16
8 10 9 10 9 9 14 21 21 23 9 8 17 14 17 13 16 12 13 15 15 9 13 13 12 13 18 12 16 17 16 11 10 12 13 11 6 21 24 20 9 14 11 10 9
6 7 6 9 9 12 17 22 22 23 16 11 12 15 15 13 14 12 8 7 12 5 5 6 9 12 17 13 12 10 14 13 19 15 16 5 4 16 19 9 11 10 9 6 8
7 4 7 8 12 19 16 17 20 22 21 12 15 15 12 11 13 15 12 9 9 7 4 5 13 17 14 14 7 3 11 16 16 13 12 9 21 14 5 9 12 12 10 9 17
6 8 16 6 13 17 18 19 15 17 13 14 15 16 15 14 15 17 14 14 14 11 6 7 15 18 20 20 7 13 6 24 17 11 15 14 14 16 8 6 6 12 12 12 13
7 8 12 15 13 8 13 17 18 19 12 13 14 15 16 18 18 19 19 11 14 15 13 15 14 15 18 20 19 13 15 14 15 11 11 17 14 13 24 10 11 11 14 13 13
8 9 8 11 12 11 11 12 13 17 17 9 8 11 12 12 14 17 14 16 18 7 15 15 13 13 16 18 16 17 18 15 15 13 14 4 16 16 14 13 14 14 16 15 14
Wind_Direction
0 356 349 348 339 337 339 333 330 326 324 322 313 308 304 304 297 247 254 150 168 164 213 215 229 229 214 227 158 214 326 295 86 137 113 127 91 80 97 130 118 103 147 134 145
2 357 347 343 339 336 336 332 328 322 317 319 314 298 301 312 271 261 230 142 142 160 204 219 214 220 265 225 308 196 166 268 246 125 124 107 115 130 124 118 137 101 111 136 148
360 356 350 346 337 335 334 330 325 320 316 320 318 310 309 300 272 115 139 146 161 186 233 247 8 39 210 216 211 239 198 211 156 114 134 123 129 140 135 139 127 130 137 148 153
358 355 352 347 337 334 330 331 325 319 313 315 318 315 314 258 336 105 152 168 177 209 248 239 150 322 264 293 282 327 143 181 129 155 140 129 154 143 94 144 138 139 149 154 161
356 353 350 343 338 331 327 326 322 316 311 311 314 315 281 236 220 131 145 173 185 222 248 252 200 203 225 19 334 285 62 109 123 152 149 143 178 100 101 109 124 139 155 160 169
355 351 346 342 334 330 324 321 317 309 304 304 310 309 249 270 101 146 167 166 191 217 241 273 318 334 319 182 189 308 151 124 175 95 128 148 91 174 121 127 133 150 161 169 170
354 349 344 338 332 327 322 318 312 305 298 294 301 288 262 273 131 164 174 189 220 229 268 300 324 305 306 333 271 245 186 174 142 171 170 206 151 122 138 143 148 164 171 174 171
352 347 343 337 330 326 321 314 305 298 295 282 274 266 268 157 212 175 191 206 230 249 274 294 289 301 281 255 38 342 59 332 296 186 133 151 301 304 185 160 162 171 177 177 178
349 347 342 337 330 325 317 309 294 286 268 271 240 234 267 110 214 196 200 222 219 245 255 270 276 276 27 351 30 182 180 235 331 243 158 135 151 251 249 175 168 175 179 180 181
345 342 339 336 329 325 316 285 271 296 224 220 257 262 237 216 197 194 207 240 241 246 252 250 255 210 155 228 234 154 196 184 199 267 229 170 188 216 221 175 170 178 176 184 183
341 335 335 328 326 325 325 217 210 201 232 225 192 218 146 226 162 199 200 222 249 250 261 249 250 225 202 254 260 277 209 216 245 121 263 215 196 192 192 191 176 174 174 183 186
336 335 330 323 319 316 281 248 303 336 276 225 255 231 256 161 195 205 192 220 224 240 228 241 242 78 330 277 276 294 9 337 283 168 269 246 238 252 19 276 196 178 173 182 185
333 333 326 320 316 266 232 248 302 310 281 263 218 233 203 196 223 201 196 216 243 228 261 260 239 145 251 275 272 90 94 221 215 272 226 357 234 358 169 355 190 192 174 179 182
331 328 327 323 285 280 221 237 250 278 276 243 199 216 218 211 241 256 185 223 229 259 256 268 250 197 224 257 289 280 272 294 178 272 236 238 329 12 341 337 320 222 175 176 177
328 327 323 325 316 258 12 301 301 262 274 142 179 192 202 209 232 209 228 205 245 236 239 260 275 238 235 270 282 295 305 292 283 272 122 90 70 31 33 302 295 241 173 174 173
327 325 324 233 213 256 307 289 242 234 245 161 134 192 193 208 218 259 202 208 235 249 271 272 273 287 280 298 226 282 288 266 253 257 236 125 151 207 188 208 246 297 169 173 170
322 315 298 307 236 289 248 244 222 249 171 171 175 195 210 200 214 238 185 214 223 234 248 255 261 261 259 275 268 251 252 261 247 236 303 281 273 217 190 164 196 244 190 165 161
318 308 224 240 261 250 259 225 246 238 255 89 185 188 204 215 204 224 208 223 220 243 269 230 237 221 220 227 251 266 303 299 276 34 268 247 279 283 238 207 225 226 157 151 158
312 191 225 226 220 264 228 222 223 259 328 315 208 184 198 212 213 220 216 236 222 209 241 266 269 296 233 217 220 248 245 249 276 226 229 105 174 255 271 125 171 140 134 149 161
307 278 242 160 175 214 226 239 240 249 341 324 285 208 225 200 209 217 216 222 249 233 215 247 273 282 304 264 263 264 286 288 280 278 277 231 72 0 320 296 131 132 136 144 167
243 233 109 154 174 216 223 233 245 264 278 266 282 285 268 253 206 223 226 237 221 239 240 242 240 269 267 209 255 227 243 248 272 283 296 127 204 183 251 265 152 156 159 162 171
283 261 136 165 199 220 231 239 263 274 224 243 271 291 302 306 275 236 229 236 220 221 230 223 263 235 260 226 221 244 244 253 237 256 258 287 111 204 225 255 146 112 118 142 206
268 224 155 204 228 229 228 247 253 260 256 265 239 264 269 296 294 293 273 258 124 171 349 274 220 261 266 252 194 231 249 258 275 259 267 290 177 196 240 162 93 99 86 73 61
274 239 147 211 250 270 271 239 236 245 262 246 285 281 287 278 272 280 270 180 158 189 79 316 281 272 258 242 51 274 252 245 257 274 296 63 147 134 208 129 124 126 122 105 71
243 265 0 194 215 234 258 271 266 239 229 229 259 269 274 269 266 269 248 281 167 148 211 234 255 278 288 290 276 275 208 272 237 268 290 123 126 117 331 320 149 136 120 113 95
330 342 347 303 296 301 244 250 271 279 257 227 220 257 269 244 258 277 278 273 255 175 204 221 242 256 274 287 292 271 269 274 271 287 291 125 129 160 181 190 152 142 137 126 112
14 330 298 291 279 269 259 270 242 256 274 301 293 275 285 269 336 317 312 307 259 311 216 211 245 247 253 269 272 265 269 267 262 272 286 301 161 170 189 166 151 151 140 132 126